sat.trackr.live / text

‹ back to catalog

STARLINK-31158

NORAD 58854 · 2024-019B

PAYLOAD ACTIVE UNKNOWN

§ Identity

Operator
Country
US
Launch date
2024-01-29
Launch site
AFETR
Launch vehicle
Mass (kg)
RCS (m²)

Purposes: comms

External: N2YO · Heavens-Above · Gunter

§ Orbital elements

Epoch: 2026-05-25T02:58:56.980704Z

Period
94.27 min
Inclination
42.9996°
Eccentricity
0.0001215
Mean motion
15.27575194 rev/d
Perigee alt
482.2 km
Apogee alt
483.9 km
Semi-major
6,861.2 km
B*
1.8570e-5
RAAN
177.1228°
Arg perigee
258.1091°
Mean anomaly
101.9624°
Rev number
13,077

§ Raw data

STARLINK-311581 58854U 24019B   26145.12427061  .00000249  00000+0  18570-4 0  99962 58854  42.9996 177.1228 0001215 258.1091 101.9624 15.27575194130771

JSON: /api/v1/satellites/58854 · /tle

For live sub-satellite position, see the globe view (requires WebGL).

§ Visibility from observer

Set your observer location to see the next 7 days of passes ≥ 10°. The values pass through the URL so the page stays shareable.

No JS? Fill the form by hand. The geolocation button needs JavaScript.